カタログに戻る

STARLINK-11300

運用中通信VLEO
NORAD 61243·PAYLOAD·🇺🇸 United States

打ち上げ Sep 25, 2024 から Vandenberg Space Force Base

Loading…

次のパス (今後24時間)

TLE

最新Source: CelesTrak SupGP

元期: Sep 15, 2026, 02:19 UTC

1 61243C 24175A   26258.09701389 -.00089624  00000+0 -73779-3 0  2589
2 61243  53.1575 202.5813 0001143  84.7561 315.0773 15.69769639    13

AllMySatでSTARLINK-11300をリアルタイム追跡

Download on the App Store